LOT2CF EDDH-EPWA

Flight info

Callsign LOT2CF
Flight time N/A
Altitude 35000
Route RAMAR6G RAMAR DCT PABMI DCT RADEL DCT ALUKA DCT DENKO P851 BIMPA
Aircraft E195/M-SDE3GILORVW/S

Departure

Time 2026-05-04 13:23
Airport Hamburg Helmut Schmidt Airport (EDDH)

Arrival

Time N/A
Airport Warsaw Chopin Airport (EPWA)
Time Latitude Longitude Altitude Speed Heading
2026-05-04 13:06 53.62945 10.00289 44 ft 0 kts 122°
2026-05-04 13:17 53.62947 10.00282 44 ft 4 kts 121°
2026-05-04 13:18 53.62959 10.00242 45 ft 4 kts 110°
2026-05-04 13:18 53.62968 10.00199 40 ft 4 kts 111°
2026-05-04 13:18 53.62977 10.00168 44 ft 4 kts 180°
2026-05-04 13:18 53.62980 10.00166 44 ft 3 kts 212°
2026-05-04 13:20 53.62977 10.00163 44 ft 1 kts 212°
2026-05-04 13:21 53.62963 10.00148 43 ft 4 kts 212°
2026-05-04 13:21 53.62935 10.00119 44 ft 6 kts 212°
2026-05-04 13:21 53.62893 10.00076 44 ft 8 kts 212°
2026-05-04 13:21 53.62857 9.99997 44 ft 9 kts 240°
2026-05-04 13:22 53.62825 9.99902 45 ft 9 kts 241°
2026-05-04 13:22 53.62819 9.99799 45 ft 8 kts 299°
2026-05-04 13:22 53.62866 9.99741 45 ft 9 kts 333°
2026-05-04 13:22 53.63006 9.99622 45 ft 49 kts 332°
2026-05-04 13:23 53.63485 9.99209 50 ft 104 kts 333°
2026-05-04 13:23 53.64269 9.98503 87 ft 147 kts 329°
2026-05-04 13:23 53.65185 9.97577 563 ft 156 kts 325°
2026-05-04 13:23 53.66078 9.96559 1194 ft 159 kts 320°
2026-05-04 13:24 53.67098 9.95478 1362 ft 195 kts 337°
2026-05-04 13:24 53.68508 9.94904 1319 ft 214 kts 348°
2026-05-04 13:24 53.70001 9.94711 1225 ft 213 kts 356°